KD7MPG-3 Weather Reports


Display with metric or nautical units.
time (UTC)temp
F
wind
direction
speed
MPH
gust
MPH
rain 1hr
in
rain 24hr
in
rain mn
in
humidity
%
barometer
mb
20260905085616 54 90 0.0 0.0 0.00 0.14 0.00 90 1025.0
20260905085114 55 90 0.0 0.0 0.00 0.14 0.00 90 1025.1
20260905084613 55 90 0.0 0.0 0.00 0.15 0.00 90 1025.1
20260905084115 55 91 0.0 0.0 0.00 0.16 0.00 90 1025.2
20260905083612 55 90 0.0 0.0 0.00 0.17 0.00 90 1025.1
20260905083110 55 91 0.0 0.0 0.00 0.17 0.00 90 1025.1
20260905082610 55 90 0.0 0.0 0.00 0.18 0.00 90 1025.0
20260905082108 56 90 0.0 0.0 0.00 0.18 0.00 90 1024.9
20260905081606 56 91 0.0 0.0 0.00 0.19 0.00 89 1025.0
20260905081104 56 90 0.0 2.0 0.00 0.19 0.00 89 1025.0
20260905080604 56 92 0.0 2.0 0.00 0.20 0.00 89 1024.8
20260905080104 56 91 0.0 3.0 0.00 0.20 0.00 89 1024.8
20260905075603 56 90 1.0 3.0 0.00 0.20 0.00 89 1024.7
20260905075059 56 90 0.0 2.0 0.00 0.20 0.00 89 1024.7
20260905074558 56 91 0.0 1.0 0.00 0.20 0.00 90 1024.6
20260905074058 56 91 0.0 2.0 0.00 0.20 0.00 90 1024.7
20260905073558 56 90 0.0 2.0 0.00 0.20 0.00 90 1024.7
20260905073058 56 90 0.0 2.0 0.00 0.20 0.00 90 1024.7
20260905072558 56 90 0.0 2.0 0.00 0.20 0.00 90 1024.7
20260905072052 56 91 0.0 3.0 0.00 0.20 0.00 90 1024.7
20260905071552 56 90 0.0 3.0 0.00 0.20 0.00 90 1024.7
20260905071052 56 89 0.0 2.0 0.00 0.20 0.00 90 1024.7
20260905070552 56 89 0.0 1.0 0.00 0.20 0.00 90 1024.7
20260905070052 56 89 0.0 1.0 0.00 0.20 0.00 90 1024.6
20260905065553 56 90 0.0 2.0 0.00 0.20 0.20 90 1024.6
20260905065047 56 89 0.0 3.0 0.00 0.20 0.20 90 1024.6
20260905064546 56 90 0.0 3.0 0.00 0.20 0.20 90 1024.5
20260905064046 56 80 0.0 2.0 0.00 0.20 0.20 89 1024.6
20260905063547 56 81 0.0 2.0 0.00 0.20 0.20 89 1024.5
20260905063046 56 80 1.0 3.0 0.00 0.20 0.20 89 1024.5
20260905062547 56 81 1.0 4.0 0.00 0.20 0.20 89 1024.3
20260905062045 56 77 1.0 4.0 0.00 0.20 0.20 89 1024.4
20260905061542 56 92 1.0 3.0 0.00 0.20 0.20 89 1024.3
20260905061040 56 90 1.0 3.0 0.00 0.20 0.20 89 1024.4
20260905060540 56 91 1.0 3.0 0.00 0.20 0.20 89 1024.3
20260905060040 56 90 1.0 4.0 0.00 0.20 0.20 89 1024.4
20260905055541 56 86 0.0 4.0 0.00 0.20 0.20 89 1024.4
20260905055034 56 87 1.0 3.0 0.00 0.20 0.20 89 1024.4
20260905054533 56 87 1.0 3.0 0.00 0.20 0.20 89 1024.3
20260905054032 56 90 1.0 4.0 0.00 0.20 0.20 90 1024.2
20260905053528 56 85 1.0 4.0 0.00 0.20 0.20 90 1024.3
20260905053028 56 82 1.0 2.0 0.00 0.20 0.20 89 1024.3
20260905052523 56 83 1.0 3.0 0.00 0.20 0.20 90 1024.1
20260905052021 56 82 1.0 3.0 0.00 0.20 0.20 90 1024.1
20260905051519 56 82 1.0 3.0 0.00 0.20 0.20 90 1024.1
20260905051016 56 84 1.0 4.0 0.00 0.20 0.20 90 1024.1
20260905050516 56 83 0.0 3.0 0.00 0.20 0.20 90 1024.1
20260905050011 56 84 0.0 3.0 0.00 0.20 0.20 90 1024.1
20260905045512 56 143 0.0 2.0 0.00 0.20 0.20 90 1024.1
20260905045013 56 143 0.0 2.0 0.00 0.20 0.20 90 1024.1
20260905044512 56 144 0.0 2.0 0.00 0.20 0.20 90 1024.1
20260905044010 56 143 0.0 0.0 0.00 0.20 0.20 90 1024.1
20260905043511 56 143 0.0 1.0 0.00 0.20 0.20 89 1024.0
20260905043006 56 143 0.0 1.0 0.00 0.20 0.20 89 1024.0
20260905042506 56 143 0.0 1.0 0.00 0.20 0.20 89 1024.0
20260905042004 56 143 0.0 3.0 0.00 0.20 0.20 89 1023.9
20260905041504 56 144 0.0 3.0 0.00 0.20 0.20 89 1023.7
20260905041004 56 148 0.0 2.0 0.00 0.20 0.20 89 1023.7
20260905040503 57 147 0.0 4.0 0.00 0.20 0.20 89 1023.6
20260905040003 57 148 0.0 4.0 0.00 0.20 0.20 89 1023.6
20260905035500 57 135 0.0 2.0 0.00 0.20 0.20 89 1023.5
20260905034958 57 136 0.0 2.0 0.00 0.20 0.20 89 1023.5
20260905034458 57 136 0.0 2.0 0.00 0.20 0.20 89 1023.6
20260905033958 58 136 0.0 1.0 0.00 0.20 0.20 89 1023.5
20260905033459 58 136 0.0 2.0 0.00 0.21 0.20 89 1023.4
20260905032954 58 135 0.0 2.0 0.00 0.21 0.20 89 1023.4
20260905032454 58 136 0.0 0.0 0.00 0.21 0.20 88 1023.3
20260905031952 58 135 0.0 0.0 0.00 0.21 0.20 88 1023.3
20260905031451 58 135 0.0 0.0 0.00 0.21 0.20 88 1023.3
20260905030952 58 135 0.0 1.0 0.00 0.21 0.20 88 1023.2
20260905030451 58 135 0.0 2.0 0.00 0.22 0.20 88 1023.3
20260905025950 58 135 0.0 2.0 0.00 0.22 0.20 88 1023.3
20260905025450 59 107 0.0 2.0 0.00 0.22 0.20 88 1023.0
20260905024949 59 107 1.0 7.0 0.00 0.22 0.20 88 1023.0
20260905024450 59 107 2.0 7.0 0.00 0.22 0.20 87 1023.0
20260905023951 59 110 2.0 6.0 0.00 0.23 0.20 87 1023.1
20260905023450 59 96 2.0 6.0 0.00 0.25 0.20 87 1023.1
20260905022951 60 117 2.0 5.0 0.00 0.27 0.20 86 1023.0
20260905022446 60 144 2.0 9.0 0.00 0.28 0.20 86 1023.0
20260905021946 60 123 3.0 9.0 0.00 0.28 0.20 85 1023.0
20260905021446 61 100 2.0 7.0 0.00 0.29 0.20 84 1023.0
20260905020946 61 103 2.0 11.0 0.00 0.29 0.20 83 1023.0
20260905020447 61 115 3.0 11.0 0.00 0.29 0.20 82 1023.0
20260905015943 62 124 3.0 12.0 0.00 0.29 0.20 81 1022.9
20260905015445 62 114 3.0 12.0 0.00 0.29 0.20 80 1023.0
20260905014941 62 101 3.0 11.0 0.00 0.29 0.20 80 1023.0
20260905014440 63 113 4.0 10.0 0.00 0.29 0.20 80 1023.0
20260905013940 63 213 4.0 14.0 0.00 0.29 0.20 81 1023.0
20260905013439 64 135 4.0 14.0 0.00 0.29 0.20 82 1023.0
20260905012941 64 138 4.0 9.0 0.00 0.29 0.20 81 1022.9
20260905012438 64 79 2.0 9.0 0.00 0.29 0.20 79 1022.8
20260905011939 64 105 2.0 7.0 0.00 0.29 0.20 77 1022.7
20260905011437 64 138 2.0 7.0 0.00 0.29 0.20 79 1022.7
20260905010934 65 117 2.0 5.0 0.00 0.29 0.20 82 1022.7
20260905010435 65 105 2.0 5.0 0.00 0.29 0.20 83 1022.7
20260905005933 65 85 2.0 8.0 0.00 0.30 0.20 82 1022.7
20260905005434 65 66 2.0 8.0 0.00 0.30 0.20 81 1022.6
20260905004931 65 82 2.0 6.0 0.00 0.30 0.20 81 1022.6
20260905004433 65 72 2.0 4.0 0.00 0.30 0.20 81 1022.7
20260905003931 65 88 1.0 4.0 0.00 0.30 0.20 79 1022.7
20260905003432 65 151 2.0 7.0 0.00 0.30 0.20 77 1022.5
20260905002932 65 161 2.0 7.0 0.00 0.30 0.20 76 1022.4
20260905002427 65 195 3.0 7.0 0.00 0.30 0.20 78 1022.4
20260905001921 65 94 3.0 7.0 0.00 0.30 0.20 80 1022.4
20260905001423 66 74 2.0 7.0 0.00 0.30 0.20 81 1022.4
20260905000922 66 86 1.0 4.0 0.00 0.31 0.20 80 1022.4
20260905000421 66 97 1.0 4.0 0.00 0.33 0.20 80 1022.3
20260904235921 66 62 1.0 6.0 0.00 0.34 0.20 79 1022.3
20260904235423 66 117 1.0 6.0 0.00 0.35 0.20 77 1022.2
20260904234917 66 104 1.0 6.0 0.00 0.36 0.20 76 1022.1
20260904234417 66 138 1.0 4.0 0.00 0.36 0.20 78 1022.1
20260904233919 66 140 0.0 3.0 0.01 0.36 0.20 78 1022.1
20260904233417 66 186 2.0 8.0 0.01 0.36 0.20 76 1022.0
20260904232918 66 186 3.0 8.0 0.01 0.36 0.20 78 1022.1
20260904232419 66 154 2.0 8.0 0.01 0.36 0.20 78 1021.9
20260904231913 66 279 1.0 5.0 0.01 0.36 0.20 79 1022.0
20260904231413 66 79 1.0 5.0 0.01 0.36 0.20 79 1021.8
20260904230915 66 225 0.0 3.0 0.01 0.36 0.20 82 1021.9
20260904230414 65 106 0.0 3.0 0.01 0.36 0.20 82 1021.8
20260904225915 65 106 0.0 3.0 0.01 0.37 0.20 83 1021.8
20260904225414 64 109 1.0 3.0 0.02 0.38 0.20 85 1021.8
20260904224909 64 162 1.0 3.0 0.02 0.39 0.20 86 1021.8
20260904224409 63 176 1.0 2.0 0.03 0.39 0.20 86 1021.9
20260904223906 62 180 0.0 4.0 0.02 0.39 0.19 88 1021.8
20260904223405 62 179 1.0 4.0 0.02 0.39 0.19 87 1021.8
20260904222907 62 180 0.0 3.0 0.03 0.39 0.19 88 1021.9
20260904222405 61 180 0.0 3.0 0.03 0.39 0.19 88 1021.9
20260904221905 61 180 0.0 2.0 0.03 0.39 0.19 88 1021.8
20260904221405 61 181 0.0 2.0 0.03 0.39 0.19 88 1021.8
20260904220906 61 182 1.0 3.0 0.03 0.39 0.19 88 1021.8
20260904220359 60 182 1.0 3.0 0.03 0.39 0.19 88 1021.8
20260904215859 60 182 1.0 3.0 0.03 0.40 0.19 88 1021.9
20260904215359 60 184 1.0 3.0 0.02 0.39 0.18 88 1021.8
20260904214859 60 191 1.0 2.0 0.02 0.41 0.18 88 1021.8
20260904214359 60 191 0.0 1.0 0.01 0.42 0.18 88 1021.7
20260904213900 60 191 0.0 3.0 0.01 0.44 0.17 87 1021.8
20260904213357 60 192 0.0 3.0 0.01 0.45 0.17 87 1021.8
20260904212855 60 192 1.0 4.0 0.00 0.48 0.16 87 1021.8
20260904212353 60 192 2.0 6.0 0.00 0.50 0.16 86 1021.9
20260904211853 61 239 2.0 7.0 0.00 0.51 0.16 86 1021.8
20260904211353 62 205 3.0 7.0 0.00 0.51 0.16 84 1021.8
20260904210854 63 233 4.0 13.0 0.00 0.52 0.16 82 1021.7
20260904210351 65 192 4.0 13.0 0.00 0.52 0.16 79 1021.6
20260904205851 66 195 3.0 8.0 0.00 0.52 0.16 76 1021.6
20260904205352 66 189 2.0 8.0 0.00 0.52 0.16 75 1021.4
20260904204849 66 188 2.0 6.0 0.00 0.52 0.16 76 1021.3
20260904204347 67 171 2.0 6.0 0.01 0.52 0.16 74 1021.2
20260904203848 67 187 2.0 8.0 0.01 0.52 0.16 76 1021.4
20260904203342 67 154 2.0 8.0 0.01 0.52 0.16 74 1021.2
20260904202841 67 126 2.0 7.0 0.01 0.52 0.16 76 1021.2
20260904202341 67 135 2.0 7.0 0.01 0.52 0.16 77 1021.2
20260904201842 67 146 2.0 7.0 0.01 0.52 0.16 76 1021.2
20260904201341 66 149 2.0 6.0 0.01 0.52 0.16 81 1021.2
20260904200842 65 98 1.0 6.0 0.01 0.52 0.16 82 1021.2
20260904200335 65 158 2.0 9.0 0.01 0.52 0.16 82 1021.1
20260904195835 64 158 2.0 9.0 0.01 0.52 0.16 81 1021.2
20260904195335 64 135 1.0 5.0 0.01 0.52 0.16 83 1021.2
20260904194841 64 132 1.0 4.0 0.01 0.52 0.16 85 1021.4
20260904194335 64 109 2.0 4.0 0.00 0.51 0.15 83 1021.4
20260904193836 63 109 2.0 4.0 0.00 0.51 0.15 86 1021.5
20260904193332 63 109 1.0 4.0 0.00 0.51 0.15 87 1021.6
20260904192831 63 113 1.0 3.0 0.00 0.51 0.15 86 1021.6
20260904192331 62 98 1.0 3.0 0.00 0.51 0.15 86 1021.6
20260904191831 62 98 1.0 3.0 0.00 0.51 0.15 87 1021.6
20260904191329 62 103 0.0 3.0 0.00 0.51 0.15 87 1021.8
20260904190828 62 105 1.0 4.0 0.00 0.51 0.15 86 1021.7
20260904190326 62 105 1.0 4.0 0.00 0.51 0.15 86 1021.7
20260904185825 62 143 1.0 4.0 0.00 0.51 0.15 85 1021.8
20260904185323 62 126 2.0 10.0 0.00 0.51 0.15 85 1021.9
20260904184823 62 121 1.0 10.0 0.00 0.51 0.15 84 1021.9
20260904184323 62 99 0.0 3.0 0.00 0.51 0.15 86 1021.8
20260904183823 62 91 1.0 3.0 0.00 0.51 0.15 86 1021.6
20260904183322 62 94 1.0 4.0 0.00 0.51 0.15 86 1021.5
20260904182821 62 82 1.0 4.0 0.00 0.51 0.15 87 1021.4
20260904182322 62 70 1.0 3.0 0.00 0.51 0.15 86 1021.5
20260904181818 62 96 1.0 3.0 0.00 0.51 0.15 87 1021.4
20260904181317 61 69 1.0 3.0 0.00 0.51 0.15 86 1021.5
20260904180817 61 65 1.0 3.0 0.00 0.51 0.15 87 1021.4
20260904180311 61 49 0.0 3.0 0.00 0.51 0.15 87 1021.4
20260904175811 61 13 1.0 3.0 0.00 0.51 0.15 86 1021.3
20260904175311 60 12 1.0 3.0 0.00 0.51 0.15 87 1021.4
20260904174812 60 347 0.0 2.0 0.00 0.51 0.15 87 1021.4
20260904174310 60 69 0.0 2.0 0.00 0.51 0.15 87 1021.3
20260904173812 60 77 0.0 1.0 0.00 0.51 0.15 88 1021.3
20260904173309 60 76 0.0 1.0 0.00 0.52 0.15 88 1021.2
20260904172809 60 76 1.0 3.0 0.00 0.52 0.15 88 1021.0
20260904172308 59 77 1.0 3.0 0.00 0.52 0.15 88 1021.0
20260904171809 59 286 0.0 2.0 0.00 0.53 0.15 89 1020.9
20260904171308 59 286 0.0 2.0 0.00 0.54 0.15 88 1021.0
20260904170806 59 286 1.0 3.0 0.00 0.55 0.15 88 1020.9
20260904170308 59 286 1.0 3.0 0.00 0.56 0.15 89 1020.8
20260904165801 59 46 0.0 2.0 0.00 0.57 0.15 89 1020.8
20260904165305 58 47 0.0 3.0 0.00 0.57 0.15 90 1020.7
20260904164800 58 72 0.0 3.0 0.00 0.58 0.15 90 1020.9
20260904164301 58 73 0.0 3.0 0.00 0.58 0.15 90 1020.8
20260904163801 58 316 1.0 3.0 0.00 0.58 0.15 90 1020.6
20260904163301 58 316 1.0 3.0 0.00 0.58 0.15 91 1020.7
20260904162756 58 24 0.0 3.0 0.00 0.58 0.15 91 1020.6
20260904162254 57 23 0.0 3.0 0.00 0.58 0.15 90 1020.6
20260904161752 57 54 1.0 3.0 0.00 0.58 0.15 91 1020.6
20260904161253 57 65 1.0 3.0 0.00 0.58 0.15 92 1020.7
20260904160752 57 59 0.0 3.0 0.00 0.58 0.15 92 1020.7
20260904160254 57 60 0.0 3.0 0.00 0.58 0.15 92 1020.7
20260904155751 56 60 0.0 3.0 0.00 0.58 0.15 92 1020.7
20260904155252 56 61 0.0 3.0 0.01 0.58 0.15 92 1020.6
20260904154751 56 60 0.0 3.0 0.01 0.58 0.15 92 1020.5
20260904154250 56 59 0.0 3.0 0.02 0.58 0.15 92 1020.5
20260904153751 56 57 0.0 3.0 0.02 0.58 0.15 92 1020.5
20260904153252 56 58 0.0 3.0 0.02 0.58 0.15 92 1020.4
20260904152751 55 57 0.0 3.0 0.02 0.58 0.15 92 1020.4
20260904152250 55 344 0.0 2.0 0.02 0.58 0.15 92 1020.3
20260904151752 55 343 0.0 2.0 0.02 0.58 0.15 92 1020.4
20260904151250 55 344 0.0 2.0 0.02 0.58 0.15 92 1020.4
20260904150752 55 0 0.0 2.0 0.02 0.58 0.15 92 1020.3
20260904150250 55 344 0.0 2.0 0.02 0.58 0.15 92 1020.2
20260904145750 55 344 0.0 2.0 0.03 0.58 0.15 92 1020.2
20260904145250 55 344 0.0 1.0 0.02 0.57 0.14 92 1020.2
20260904144752 55 342 0.0 1.0 0.02 0.57 0.14 92 1020.3
20260904144247 55 342 0.0 2.0 0.01 0.56 0.13 92 1020.2
20260904143746 55 342 1.0 3.0 0.02 0.56 0.13 92 1020.1
20260904143247 55 15 1.0 3.0 0.02 0.56 0.13 92 1020.0
20260904142746 54 34 0.0 2.0 0.02 0.56 0.13 92 1019.9
20260904142247 54 38 0.0 1.0 0.02 0.56 0.13 92 1020.1
20260904141746 54 38 0.0 1.0 0.02 0.56 0.13 92 1020.0
20260904141243 54 38 0.0 1.0 0.02 0.56 0.13 92 1019.9
20260904140742 54 38 0.0 1.0 0.02 0.56 0.13 92 1019.8
20260904140243 54 38 0.0 3.0 0.02 0.56 0.13 92 1019.8
20260904135742 54 38 0.0 3.0 0.01 0.56 0.12 92 1019.6
20260904135242 54 40 0.0 1.0 0.01 0.57 0.12 92 1019.6
20260904134742 54 41 0.0 1.0 0.01 0.58 0.12 92 1019.6
20260904134238 54 40 0.0 1.0 0.01 0.60 0.12 92 1019.5
20260904133738 54 41 0.0 1.0 0.00 0.60 0.11 92 1019.5
20260904133238 54 41 0.0 2.0 0.00 0.60 0.11 92 1019.4
20260904132738 54 40 0.0 2.0 0.00 0.61 0.11 92 1019.3
20260904132238 54 40 0.0 1.0 0.00 0.63 0.11 92 1019.3
20260904131738 54 40 0.0 1.0 0.00 0.67 0.11 92 1019.3
20260904131233 54 41 0.0 1.0 0.00 0.69 0.11 92 1019.2
20260904130732 54 40 0.0 2.0 0.00 0.70 0.11 92 1019.2
20260904130233 54 40 0.0 2.0 0.00 0.70 0.11 92 1019.2
20260904125731 54 40 0.0 0.0 0.00 0.70 0.11 92 1019.2
20260904125231 54 40 0.0 0.0 0.00 0.71 0.11 92 1019.1
20260904124731 54 40 0.0 0.0 0.00 0.71 0.11 92 1019.2
20260904124225 54 40 0.0 1.0 0.00 0.71 0.11 92 1019.2
20260904123724 54 40 0.0 2.0 0.00 0.71 0.11 92 1019.1
20260904123220 54 40 0.0 2.0 0.00 0.71 0.11 92 1019.1
20260904122718 54 40 0.0 2.0 0.00 0.71 0.11 92 1019.2
20260904122218 54 40 0.0 1.0 0.00 0.71 0.11 92 1019.1
20260904121714 54 41 0.0 1.0 0.00 0.71 0.11 92 1019.0
20260904121213 54 40 0.0 1.0 0.00 0.71 0.11 92 1019.0
20260904120712 54 42 0.0 1.0 0.00 0.71 0.11 92 1019.1
20260904120212 54 41 0.0 1.0 0.00 0.71 0.11 92 1019.0
20260904115712 54 42 0.0 1.0 0.00 0.71 0.11 92 1019.0
20260904115213 54 41 0.0 1.0 0.00 0.71 0.11 92 1018.9
20260904114708 54 42 0.0 1.0 0.00 0.71 0.11 92 1018.8
20260904114209 54 42 0.0 1.0 0.00 0.71 0.11 92 1018.8
20260904113708 54 42 0.0 0.0 0.00 0.71 0.11 92 1018.7
20260904113208 54 41 0.0 0.0 0.00 0.71 0.11 92 1018.8
20260904112706 54 41 0.0 0.0 0.01 0.71 0.11 92 1018.7
20260904112206 54 42 0.0 0.0 0.01 0.71 0.11 92 1018.5
20260904111700 54 42 0.0 0.0 0.01 0.71 0.11 92 1018.5
20260904111158 54 42 0.0 1.0 0.01 0.71 0.11 92 1018.4
20260904110656 54 42 0.0 1.0 0.02 0.71 0.11 92 1018.5
20260904110155 54 42 0.0 1.0 0.02 0.71 0.11 92 1018.5
20260904105654 54 42 0.0 1.0 0.02 0.71 0.11 92 1018.4
20260904105149 54 42 0.0 3.0 0.03 0.71 0.11 92 1018.3
20260904104649 54 41 1.0 4.0 0.03 0.71 0.11 92 1018.3
20260904104148 54 42 1.0 4.0 0.03 0.71 0.11 92 1018.1
20260904103648 54 82 0.0 3.0 0.03 0.71 0.11 92 1018.2
20260904103148 54 104 0.0 1.0 0.03 0.71 0.11 92 1018.2
20260904102648 54 106 0.0 1.0 0.02 0.70 0.11 92 1018.2
20260904102146 54 105 0.0 0.0 0.02 0.70 0.10 92 1018.3
20260904101644 54 105 0.0 0.0 0.02 0.70 0.10 92 1018.3
20260904101145 54 105 0.0 1.0 0.02 0.70 0.10 92 1018.3
20260904100644 54 105 0.0 2.0 0.02 0.69 0.09 92 1018.2
20260904100142 54 105 0.0 2.0 0.02 0.69 0.09 92 1018.3
20260904095642 54 105 0.0 0.0 0.02 0.69 0.09 92 1018.3
20260904095136 54 105 0.0 1.0 0.02 0.68 0.08 92 1018.4
20260904094635 54 105 0.0 1.0 0.03 0.68 0.08 92 1018.3
20260904094136 54 106 0.0 3.0 0.04 0.68 0.08 92 1018.3
20260904093636 54 105 0.0 3.0 0.05 0.68 0.08 92 1018.2
20260904093135 54 75 0.0 2.0 0.05 0.68 0.08 92 1018.3
20260904092637 54 76 0.0 2.0 0.06 0.68 0.08 92 1018.2
20260904092135 54 76 0.0 2.0 0.06 0.68 0.08 92 1018.3
20260904091632 54 76 0.0 3.0 0.07 0.68 0.08 92 1018.3
20260904091133 54 76 1.0 3.0 0.07 0.68 0.08 92 1018.3
20260904090633 54 76 1.0 3.0 0.07 0.67 0.07 92 1018.4
20260904090130 54 101 1.0 3.0 0.07 0.67 0.07 92 1018.5